Weather History for KCOD - May, 2014

Change the Weather History Date:

Thursday, May 8, 2014

  Actual Average Record
Temperature  
Mean Temperature 40 °F -  
Max Temperature 51 °F 61 °F 85 °F (1928)
Min Temperature 28 °F 38 °F 20 °F (1945)
Degree Days  
Heating Degree Days 26    
Moisture  
Dew Point 31 °F    
Average Humidity 71    
Maximum Humidity 100    
Minimum Humidity 41    
Precipitation  
Precipitation 0.00 in - - ()
Sea Level Pressure  
Sea Level Pressure 29.89 in    
Wind  
Wind Speed 6 mph (SE)    
Max Wind Speed 17 mph    
Max Gust Speed 18 mph    
Visibility 10 miles    
Events      
Averages and records for this station are not official NWS values.
T = Trace of Precipitation, MM = Missing Value Source: NWS Daily Summary

Daily Weather History Graph

Daily Weather History Graph

Search for Another Location

Airport or City:

Trip Planner

Search our weather history database for the weather conditions in past years. The results will help you decide how hot, cold, wet, or windy it might be!

Date:

Astronomy

May. 08, 2014 Rise Set
Actual Time 5:56 AM MDT 8:29 PM MDT
Civil Twilight 5:23 AM MDT 9:02 PM MDT
Nautical Twilight 4:42 AM MDT 9:43 PM MDT
Astronomical Twilight 3:56 AM MDT 10:30 PM MDT
Moon 2:18 PM MDT (5/8) 2:44 AM MDT (5/8)
Length of Visible Light 15h 38m
Length of Day
14h 32m
Waxing Gibbous, 65% of the Moon is Illuminated
May 8
Waxing Gibbous
May 14
Full
May 21
Last Quarter
May 28
New
Jun 5
First Quarter

Hourly Weather History & Observations

Time (MDT) Temp. Windchill Dew Point Humidity Pressure Visibility Wind Dir Wind Speed Gust Speed Precip Events Conditions
12:15 AM 32.0 °F 23.6 °F 28.4 °F 87% 29.94 in 10.0 mi North 10.4 mph - N/A   Overcast
12:35 AM 32.0 °F 26.4 °F 28.4 °F 87% 29.95 in 10.0 mi North 5.8 mph - N/A   Overcast
12:55 AM 32.0 °F 24.8 °F 28.4 °F 87% 29.95 in 9.0 mi North 8.1 mph - N/A   Overcast
1:15 AM 32.0 °F 26.4 °F 28.4 °F 87% 29.95 in 10.0 mi NNW 5.8 mph - N/A   Overcast
1:35 AM 32.0 °F 27.5 °F 28.4 °F 87% 29.94 in 10.0 mi North 4.6 mph - N/A   Mostly Cloudy
1:55 AM 32.0 °F 26.4 °F 28.4 °F 87% 29.94 in 10.0 mi NW 5.8 mph - N/A   Overcast
2:15 AM 32.0 °F 25.6 °F 28.4 °F 87% 29.93 in 10.0 mi NNW 6.9 mph - N/A   Overcast
2:35 AM 32.0 °F 28.7 °F 28.4 °F 87% 29.92 in 10.0 mi NW 3.5 mph - N/A   Mostly Cloudy
2:55 AM 32.0 °F - 28.4 °F 87% 29.91 in 10.0 mi Calm Calm - N/A   Overcast
3:15 AM 32.0 °F 27.5 °F 28.4 °F 87% 29.92 in 10.0 mi SSW 4.6 mph - N/A   Overcast
3:35 AM 30.2 °F - 28.4 °F 93% 29.91 in 10.0 mi Calm Calm - N/A   Mostly Cloudy
3:55 AM 30.2 °F 26.7 °F 28.4 °F 93% 29.92 in 10.0 mi SE 3.5 mph - N/A   Mostly Cloudy
4:15 AM 30.2 °F 25.4 °F 28.4 °F 93% 29.92 in 10.0 mi East 4.6 mph - N/A   Partly Cloudy
4:35 AM 30.2 °F 25.4 °F 28.4 °F 93% 29.92 in 10.0 mi ESE 4.6 mph - N/A   Clear
4:55 AM 28.4 °F 23.3 °F 28.4 °F 100% 29.92 in 10.0 mi NNE 4.6 mph - N/A   Clear
5:15 AM 28.4 °F 23.3 °F 26.6 °F 93% 29.93 in 10.0 mi NE 4.6 mph - N/A   Mostly Cloudy
5:35 AM 28.4 °F 24.6 °F 26.6 °F 93% 29.93 in 10.0 mi NE 3.5 mph - N/A   Overcast
5:55 AM 28.4 °F - 28.4 °F 100% 29.93 in - Calm Calm - N/A   Overcast
6:15 AM 30.2 °F - 28.4 °F 93% 29.93 in 10.0 mi Calm Calm - N/A   Overcast
6:35 AM 30.2 °F - 28.4 °F 93% 29.93 in - Calm Calm - N/A   Mostly Cloudy
6:55 AM 30.2 °F - 28.4 °F 93% 29.93 in - Calm Calm - N/A   Mostly Cloudy
7:15 AM 32.0 °F - 28.4 °F 87% 29.93 in 10.0 mi Calm Calm - N/A   Overcast
7:35 AM 33.8 °F - 28.4 °F 81% 29.94 in 10.0 mi Calm Calm - N/A   Overcast
7:55 AM 33.8 °F - 28.4 °F 81% 29.94 in 10.0 mi Calm Calm - N/A   Overcast
8:15 AM 33.8 °F 29.6 °F 30.2 °F 87% 29.94 in 10.0 mi NE 4.6 mph - N/A   Overcast
8:35 AM 33.8 °F - 28.4 °F 81% 29.94 in 10.0 mi Calm Calm - N/A   Overcast
8:55 AM 33.8 °F - 28.4 °F 81% 29.94 in 10.0 mi Calm Calm - N/A   Overcast
9:15 AM 35.6 °F 32.8 °F 30.2 °F 81% 29.95 in 10.0 mi SSE 3.5 mph - N/A   Overcast
9:35 AM 35.6 °F - 28.4 °F 75% 29.94 in 10.0 mi Calm Calm - N/A   Overcast
9:55 AM 37.4 °F 34.9 °F 30.2 °F 75% 29.94 in 10.0 mi South 3.5 mph - N/A   Overcast
10:15 AM 37.4 °F 33.8 °F 28.4 °F 70% 29.94 in 10.0 mi South 4.6 mph - N/A   Mostly Cloudy
10:35 AM 39.2 °F 35.9 °F 30.2 °F 70% 29.93 in 10.0 mi South 4.6 mph - N/A   Partly Cloudy
11:15 AM 41.0 °F 36.4 °F 30.2 °F 65% 29.92 in 10.0 mi SSW 6.9 mph - N/A   Clear
11:35 AM 42.8 °F 38.6 °F 30.2 °F 61% 29.92 in 10.0 mi SSE 6.9 mph - N/A   Clear
11:55 AM 42.8 °F - 28.4 °F 57% 29.91 in 10.0 mi Calm Calm - N/A   Clear
12:15 PM 44.6 °F 40.7 °F 30.2 °F 57% 29.91 in 10.0 mi SSE 6.9 mph - N/A   Clear
12:35 PM 44.6 °F 39.7 °F 30.2 °F 57% 29.90 in 10.0 mi SSE 9.2 mph - N/A   Clear
12:55 PM 46.4 °F 42.9 °F 30.2 °F 53% 29.90 in 10.0 mi East 6.9 mph - N/A   Clear
1:15 PM 44.6 °F 43.1 °F 30.2 °F 57% 29.89 in 10.0 mi South 3.5 mph - N/A   Mostly Cloudy
1:35 PM 46.4 °F - 30.2 °F 53% 29.88 in 10.0 mi Calm Calm - N/A   Mostly Cloudy
1:55 PM 46.4 °F 44.3 °F 30.2 °F 53% 29.88 in 10.0 mi South 4.6 mph - N/A   Partly Cloudy
2:15 PM 48.2 °F - 32.0 °F 54% 29.88 in 10.0 mi South 4.6 mph - N/A   Mostly Cloudy
2:35 PM 48.2 °F - 33.8 °F 58% 29.87 in 10.0 mi ENE 3.5 mph - N/A   Mostly Cloudy
2:55 PM 50.0 °F - 33.8 °F 54% 29.87 in 10.0 mi East 6.9 mph - N/A   Mostly Cloudy
3:15 PM 50.0 °F - 32.0 °F 50% 29.86 in 10.0 mi South 10.4 mph - N/A   Mostly Cloudy
3:35 PM 48.2 °F - 30.2 °F 50% 29.86 in 10.0 mi SSW 8.1 mph - N/A   Partly Cloudy
3:55 PM 51.8 °F - 30.2 °F 44% 29.86 in 10.0 mi SSW 6.9 mph - N/A   Clear
4:15 PM 50.0 °F - 28.4 °F 43% 29.85 in 10.0 mi South 8.1 mph - N/A   Partly Cloudy
4:35 PM 51.8 °F - 28.4 °F 41% 29.84 in 10.0 mi ESE 4.6 mph - N/A   Scattered Clouds
4:55 PM 51.8 °F - 30.2 °F 44% 29.84 in 10.0 mi South 6.9 mph - N/A   Scattered Clouds
5:15 PM 51.8 °F - 32.0 °F 47% 29.83 in 10.0 mi SE 9.2 mph - N/A   Partly Cloudy
5:35 PM 51.8 °F - 33.8 °F 50% 29.83 in 10.0 mi SE 10.4 mph - N/A   Partly Cloudy
5:55 PM 51.8 °F - 33.8 °F 50% 29.82 in 10.0 mi SE 12.7 mph - N/A   Partly Cloudy
6:15 PM 51.8 °F - 33.8 °F 50% 29.82 in 10.0 mi SE 12.7 mph 17.3 mph N/A   Partly Cloudy
6:35 PM 51.8 °F - 33.8 °F 50% 29.82 in 10.0 mi ESE 17.3 mph - N/A   Scattered Clouds
6:55 PM 50.0 °F - 33.8 °F 54% 29.82 in 10.0 mi ESE 12.7 mph - N/A   Mostly Cloudy
7:15 PM 48.2 °F - 33.8 °F 58% 29.82 in 10.0 mi ESE 13.8 mph 18.4 mph N/A   Mostly Cloudy
7:35 PM 50.0 °F - 35.6 °F 58% 29.83 in 10.0 mi ESE 9.2 mph 18.4 mph N/A   Mostly Cloudy
7:55 PM 48.2 °F - 33.8 °F 58% 29.83 in 10.0 mi SSE 11.5 mph 16.1 mph N/A   Mostly Cloudy
8:15 PM 48.2 °F - 33.8 °F 58% 29.82 in 10.0 mi SE 5.8 mph - N/A   Scattered Clouds
8:35 PM 46.4 °F 41.5 °F 33.8 °F 62% 29.82 in 10.0 mi SE 10.4 mph - N/A   Clear
8:55 PM 46.4 °F 41.1 °F 33.8 °F 62% 29.82 in 10.0 mi SE 11.5 mph - N/A   Clear
9:15 PM 44.6 °F 39.7 °F 33.8 °F 66% 29.82 in 10.0 mi SE 9.2 mph - N/A   Clear
9:35 PM 44.6 °F 38.8 °F 33.8 °F 66% 29.82 in 10.0 mi SE 11.5 mph - N/A   Clear
9:55 PM 42.8 °F 40.1 °F 33.8 °F 70% 29.82 in 10.0 mi South 4.6 mph - N/A   Clear
10:15 PM 42.8 °F 38.0 °F 33.8 °F 70% 29.83 in 10.0 mi SSE 8.1 mph - N/A   Clear
10:35 PM 42.8 °F 38.0 °F 33.8 °F 70% 29.82 in 10.0 mi South 8.1 mph - N/A   Clear
10:55 PM 41.0 °F 35.8 °F 33.8 °F 76% 29.82 in 10.0 mi South 8.1 mph - N/A   Clear
11:15 PM 39.2 °F 35.9 °F 33.8 °F 81% 29.82 in 10.0 mi SSW 4.6 mph - N/A   Clear
11:35 PM 39.2 °F - 33.8 °F 81% 29.82 in 10.0 mi Calm Calm - N/A   Clear
11:55 PM 39.2 °F 34.2 °F 33.8 °F 81% 29.82 in 10.0 mi South 6.9 mph - N/A   Clear